DW1973 Weather Reports


Display with metric or nautical units.
time (UTC)temp
F
wind
direction
speed
MPH
gust
MPH
rain 1hr
in
rain 24hr
in
rain mn
in
humidity
%
barometer
mb
20260503030422 48 19 2.0 3.0 0.00 0.00 0.00 55 1016.3
20260503025934 48 18 2.0 3.0 0.00 0.00 0.00 54 1016.4
20260503025423 48 18 2.0 3.0 0.00 0.00 0.00 54 1016.4
20260503024934 49 17 2.0 4.0 0.00 0.00 0.00 54 1016.3
20260503024427 49 19 2.0 4.0 0.00 0.00 0.00 54 1016.3
20260503023936 49 17 2.0 4.0 0.00 0.00 0.00 54 1016.3
20260503023417 49 19 2.0 4.0 0.00 0.00 0.00 53 1016.4
20260503022930 49 19 2.0 3.0 0.00 0.00 0.00 53 1016.4
20260503022435 49 17 2.0 3.0 0.00 0.00 0.00 53 1016.4
20260503021942 49 19 2.0 3.0 0.00 0.00 0.00 52 1016.4
20260503021426 50 22 2.0 3.0 0.00 0.00 0.00 52 1016.4
20260503020935 50 24 1.0 3.0 0.00 0.00 0.00 51 1016.3
20260503020444 50 24 1.0 3.0 0.00 0.00 0.00 51 1016.3
20260503015916 50 19 1.0 2.0 0.00 0.00 0.00 50 1016.3
20260503015428 50 19 2.0 3.0 0.00 0.00 0.00 50 1016.3
20260503014938 51 17 1.0 3.0 0.00 0.00 0.00 49 1016.2
20260503014424 51 17 1.0 3.0 0.00 0.00 0.00 49 1016.2
20260503013933 51 18 2.0 3.0 0.00 0.00 0.00 49 1016.1
20260503013439 51 19 2.0 3.0 0.00 0.00 0.00 48 1016.0
20260503012928 52 20 0.0 0.0 0.00 0.00 0.00 48 1015.9
20260503012435 52 17 0.0 0.0 0.00 0.00 0.00 47 1016.0
20260503011923 52 17 0.0 0.0 0.00 0.00 0.00 47 1015.9
20260503011415 52 17 0.0 2.0 0.00 0.00 0.00 46 1016.0
20260503010927 53 16 0.0 2.0 0.00 0.00 0.00 46 1016.0
20260503010436 53 16 1.0 2.0 0.00 0.00 0.00 45 1016.0
20260503005942 53 16 1.0 2.0 0.00 0.00 0.00 45 1016.0
20260503005456 53 15 0.0 2.0 0.00 0.00 0.00 44 1016.1
20260503004922 54 15 1.0 3.0 0.00 0.00 0.00 43 1016.0
20260503004449 54 15 2.0 3.0 0.00 0.00 0.00 43 1016.0
20260503003936 54 15 0.0 3.0 0.00 0.00 0.00 43 1016.1
20260503003424 54 15 0.0 3.0 0.00 0.00 0.00 43 1016.0
20260503002934 54 15 1.0 4.0 0.00 0.00 0.00 42 1016.0
20260503002440 54 16 2.0 4.0 0.00 0.00 0.00 42 1016.0
20260503001947 55 16 3.0 6.0 0.00 0.00 0.00 42 1016.1
20260503001417 55 15 3.0 7.0 0.00 0.00 0.00 42 1016.1
20260503000926 55 15 2.0 3.0 0.00 0.00 0.00 42 1016.0
20260503000437 55 15 0.0 5.0 0.00 0.00 0.00 43 1016.2
20260502235923 55 15 1.0 5.0 0.00 0.00 0.00 41 1016.2
20260502235430 55 15 1.0 4.0 0.00 0.00 0.00 42 1016.2
20260502234918 55 15 2.0 3.0 0.00 0.00 0.00 42 1016.1
20260502234429 55 15 1.0 3.0 0.00 0.00 0.00 42 1016.2
20260502233916 55 15 1.0 6.0 0.00 0.00 0.00 43 1016.3
20260502233453 55 15 3.0 6.0 0.00 0.00 0.00 42 1016.5
20260502232923 55 15 2.0 7.0 0.00 0.00 0.00 42 1016.4
20260502232431 56 15 2.0 6.0 0.00 0.00 0.00 41 1016.5
20260502231940 56 17 3.0 6.0 0.00 0.00 0.00 41 1016.5
20260502231456 56 22 2.0 5.0 0.00 0.00 0.00 43 1016.5
20260502230924 56 16 2.0 5.0 0.00 0.00 0.00 44 1016.5
20260502230431 55 16 1.0 3.0 0.00 0.00 0.00 43 1016.6
20260502225936 55 16 1.0 4.0 0.00 0.00 0.00 44 1016.6
20260502225454 55 15 1.0 6.0 0.00 0.00 0.00 42 1016.6
20260502224943 56 17 2.0 6.0 0.00 0.00 0.00 41 1016.7
20260502224427 56 16 3.0 5.0 0.00 0.00 0.00 42 1016.6
20260502223917 56 17 3.0 5.0 0.00 0.00 0.00 41 1016.6
20260502223451 56 17 2.0 8.0 0.00 0.00 0.00 42 1016.5
20260502222922 56 17 4.0 8.0 0.00 0.00 0.00 42 1016.6
20260502222428 56 16 2.0 8.0 0.00 0.00 0.00 40 1016.6
20260502221936 56 20 3.0 8.0 0.00 0.00 0.00 41 1016.6
20260502221455 57 30 2.0 5.0 0.00 0.00 0.00 41 1016.6
20260502220944 56 360 2.0 8.0 0.00 0.00 0.00 42 1016.8
20260502215937 56 22 4.0 9.0 0.00 0.00 0.00 41 1016.7
20260502215446 56 22 2.0 9.0 0.00 0.00 0.00 42 1016.8
20260502214931 56 16 4.0 9.0 0.00 0.00 0.00 41 1016.9
20260502214421 56 19 4.0 10.0 0.00 0.00 0.00 42 1016.8
20260502213927 56 26 4.0 10.0 0.00 0.00 0.00 41 1016.8
20260502213435 56 26 2.0 5.0 0.00 0.00 0.00 44 1016.8
20260502212925 56 25 3.0 13.0 0.00 0.00 0.00 45 1016.9
20260502212434 55 274 6.0 13.0 0.00 0.00 0.00 45 1016.9
20260502211921 55 303 2.0 4.0 0.00 0.00 0.00 44 1016.9
20260502211432 54 334 1.0 3.0 0.00 0.00 0.00 44 1017.0
20260502210940 54 218 1.0 3.0 0.00 0.00 0.00 45 1016.9
20260502210447 54 217 2.0 5.0 0.00 0.00 0.00 46 1017.1
20260502205929 54 216 2.0 5.0 0.00 0.00 0.00 45 1017.2
20260502205417 54 282 2.0 7.0 0.00 0.00 0.00 44 1017.1
20260502204927 55 271 3.0 7.0 0.00 0.00 0.00 44 1017.2
20260502204418 56 294 2.0 6.0 0.00 0.00 0.00 44 1017.2
20260502203955 56 233 3.0 6.0 0.00 0.00 0.00 45 1017.1
20260502203444 56 307 2.0 7.0 0.00 0.00 0.00 45 1017.1
20260502202945 55 265 3.0 7.0 0.00 0.00 0.00 43 1017.2
20260502202431 55 234 2.0 7.0 0.00 0.00 0.00 47 1017.2
20260502201920 54 26 2.0 5.0 0.00 0.00 0.00 45 1017.4
20260502201452 54 311 2.0 9.0 0.00 0.00 0.00 44 1017.4
20260502200918 55 298 4.0 9.0 0.00 0.00 0.00 43 1017.4
20260502200423 54 348 2.0 9.0 0.00 0.00 0.00 44 1017.6
20260502195916 54 292 4.0 9.0 0.00 0.00 0.00 45 1017.7
20260502195452 54 277 3.0 7.0 0.00 0.00 0.00 46 1017.6
20260502194918 53 249 2.0 6.0 0.00 0.00 0.00 46 1017.7
20260502194427 53 306 3.0 8.0 0.00 0.00 0.00 45 1017.8
20260502193915 53 351 3.0 8.0 0.00 0.00 0.00 45 1017.9
20260502193431 53 309 4.0 8.0 0.00 0.00 0.00 44 1018.0
20260502192943 54 317 2.0 7.0 0.00 0.00 0.00 43 1018.0
20260502192430 54 326 2.0 5.0 0.00 0.00 0.00 42 1018.0
20260502191917 55 311 2.0 5.0 0.00 0.00 0.00 44 1017.9
20260502191428 54 297 2.0 4.0 0.00 0.00 0.00 45 1018.0
20260502190940 54 9 2.0 5.0 0.00 0.00 0.00 44 1018.2
20260502190424 53 53 3.0 5.0 0.00 0.00 0.00 44 1018.3
20260502185932 53 9 1.0 4.0 0.00 0.00 0.00 45 1018.4
20260502185420 53 329 2.0 5.0 0.00 0.00 0.00 46 1018.4
20260502184927 53 291 3.0 5.0 0.00 0.00 0.00 45 1018.4
20260502184437 53 55 3.0 6.0 0.00 0.00 0.00 47 1018.5
20260502183945 52 340 3.0 6.0 0.00 0.00 0.00 46 1018.5
20260502183430 52 313 3.0 6.0 0.00 0.00 0.00 45 1018.5
20260502182432 53 309 3.0 8.0 0.00 0.00 0.00 44 1018.6
20260502181919 52 315 3.0 6.0 0.00 0.00 0.00 46 1018.7
20260502181427 52 324 2.0 5.0 0.00 0.00 0.00 46 1018.8
20260502180916 52 338 1.0 8.0 0.00 0.00 0.00 46 1018.9
20260502180423 52 304 3.0 8.0 0.00 0.00 0.00 44 1018.9
20260502170430 52 351 3.0 6.0 0.00 0.00 0.00 43 1019.3
20260502163921 52 251 1.0 5.0 0.00 0.00 0.00 44 1019.4
20260502163456 52 346 1.0 5.0 0.00 0.00 0.00 45 1019.5
20260502162951 52 286 3.0 8.0 0.00 0.00 0.00 45 1019.5
20260502162416 52 351 4.0 8.0 0.00 0.00 0.00 46 1019.7
20260502161924 51 348 2.0 5.0 0.00 0.00 0.00 49 1019.6
20260502161414 51 317 1.0 7.0 0.00 0.00 0.00 47 1019.7
20260502160919 50 30 3.0 7.0 0.00 0.00 0.00 48 1019.8
20260502160428 51 277 1.0 5.0 0.00 0.00 0.00 46 1019.8
20260502151915 48 223 2.0 4.0 0.00 0.00 0.00 49 1019.9
20260502151426 49 265 2.0 4.0 0.00 0.00 0.00 48 1019.9
20260502150915 48 294 1.0 3.0 0.00 0.00 0.00 51 1019.9
20260502150422 48 266 2.0 3.0 0.00 0.00 0.00 49 1019.9
20260502130444 37 63 1.0 2.0 0.00 0.00 0.00 93 1019.8
20260502123437 34 64 0.0 0.0 0.00 0.00 0.00 93 1019.8
20260502122922 34 64 0.0 0.0 0.00 0.00 0.00 93 1019.8
20260502122430 34 63 0.0 0.0 0.00 0.00 0.00 93 1019.6
20260502121916 33 64 0.0 0.0 0.00 0.00 0.00 93 1019.6
20260502121426 33 64 0.0 0.0 0.00 0.00 0.00 93 1019.6
20260502120931 32 64 0.0 0.0 0.00 0.00 0.00 93 1019.6
20260502120419 32 64 0.0 0.0 0.00 0.00 0.00 92 1019.6
20260502115929 31 64 0.0 0.0 0.00 0.00 0.00 92 1019.5
20260502115419 31 64 0.0 0.0 0.00 0.00 0.00 92 1019.5
20260502114926 31 64 0.0 0.0 0.00 0.00 0.00 92 1019.4
20260502114439 31 64 0.0 0.0 0.00 0.00 0.00 91 1019.3
20260502113948 30 64 0.0 0.0 0.00 0.00 0.00 91 1019.3
20260502113437 30 64 0.0 0.0 0.00 0.00 0.00 91 1019.3
20260502112922 30 64 0.0 0.0 0.00 0.00 0.00 91 1019.2
20260502112430 30 64 0.0 0.0 0.00 0.00 0.00 91 1019.2
20260502111939 30 64 0.0 0.0 0.00 0.00 0.00 91 1019.3
20260502111424 30 64 0.0 0.0 0.00 0.00 0.00 91 1019.3
20260502110932 30 64 0.0 0.0 0.00 0.00 0.00 91 1019.2
20260502110416 30 64 0.0 0.0 0.00 0.00 0.00 91 1019.1
20260502105923 30 64 0.0 0.0 0.00 0.00 0.00 91 1019.1
20260502105436 30 64 0.0 0.0 0.00 0.00 0.00 91 1019.2
20260502104920 30 64 0.0 0.0 0.00 0.00 0.00 90 1019.1
20260502104429 30 64 0.0 0.0 0.00 0.00 0.00 90 1019.0
20260502103936 30 64 0.0 0.0 0.00 0.00 0.00 90 1019.1
20260502103421 30 64 0.0 0.0 0.00 0.00 0.00 90 1019.0
20260502102926 30 64 0.0 0.0 0.00 0.00 0.00 90 1018.9
20260502102437 30 64 0.0 0.0 0.00 0.00 0.00 90 1019.0
20260502101921 30 64 0.0 0.0 0.00 0.00 0.00 90 1019.0
20260502101456 30 64 0.0 0.0 0.00 0.00 0.00 90 1019.0
20260502100921 30 64 0.0 0.0 0.00 0.00 0.00 90 1019.1
20260502100427 30 64 0.0 0.0 0.00 0.00 0.00 90 1019.0
20260502091427 30 64 0.0 0.0 0.00 0.01 0.00 90 1018.9
20260502090935 30 64 0.0 0.0 0.00 0.01 0.00 89 1018.9
20260502090420 30 64 0.0 0.0 0.00 0.01 0.00 89 1018.9
20260502071437 32 64 0.0 0.0 0.00 0.01 0.00 88 1019.1
20260502070953 32 64 0.0 0.0 0.00 0.01 0.00 88 1019.1
20260502070420 32 64 0.0 0.0 0.00 0.01 0.00 87 1019.1
20260502065926 32 64 0.0 0.0 0.00 0.01 0.00 87 1019.1
20260502065414 32 64 0.0 0.0 0.00 0.01 0.00 88 1019.3
20260502064923 32 64 0.0 0.0 0.00 0.01 0.00 88 1019.3
20260502064430 32 64 0.0 0.0 0.00 0.01 0.00 87 1019.2
20260502063917 32 64 0.0 0.0 0.00 0.01 0.00 87 1019.2
20260502063425 32 64 0.0 0.0 0.00 0.01 0.00 87 1019.2
20260502062916 32 64 0.0 0.0 0.00 0.01 0.00 86 1019.3
20260502062452 32 64 0.0 0.0 0.00 0.01 0.00 86 1019.4
20260502061916 32 64 0.0 0.0 0.00 0.01 0.00 86 1019.4
20260502060933 33 64 0.0 0.0 0.00 0.01 0.00 86 1019.5
20260502060442 33 64 0.0 0.0 0.00 0.01 0.00 86 1019.4
20260502055928 33 64 0.0 0.0 0.00 0.01 0.00 86 1019.5
20260502055416 33 64 0.0 0.0 0.00 0.01 0.01 85 1019.4
20260502054922 33 64 0.0 0.0 0.00 0.01 0.01 85 1019.6
20260502054436 33 64 0.0 0.0 0.00 0.01 0.01 85 1019.5
20260502053945 33 64 0.0 0.0 0.00 0.01 0.01 85 1019.5
20260502053429 33 64 0.0 0.0 0.00 0.01 0.01 84 1019.5
20260502052919 34 64 0.0 0.0 0.00 0.01 0.01 84 1019.5
20260502052426 34 64 0.0 0.0 0.00 0.01 0.01 84 1019.5
20260502051930 34 64 0.0 0.0 0.00 0.01 0.01 84 1019.4
20260502051419 34 64 0.0 0.0 0.00 0.01 0.01 84 1019.5
20260502050926 34 64 0.0 0.0 0.00 0.01 0.01 84 1019.5
20260502050435 34 64 0.0 0.0 0.00 0.01 0.01 84 1019.5
20260502045918 34 64 0.0 0.0 0.00 0.01 0.01 83 1019.5
20260502045428 34 64 0.0 0.0 0.00 0.01 0.01 83 1019.6
20260502044939 34 64 0.0 0.0 0.00 0.01 0.01 83 1019.6
20260502044430 34 64 0.0 0.0 0.00 0.01 0.01 83 1019.6
20260502043916 35 64 0.0 0.0 0.00 0.01 0.01 82 1019.6
20260502043423 35 64 0.0 0.0 0.00 0.01 0.01 82 1019.6
20260502042933 35 64 0.0 0.0 0.00 0.01 0.01 81 1019.5
20260502042423 35 64 0.0 0.0 0.00 0.01 0.01 81 1019.5
20260502041934 35 64 0.0 0.0 0.00 0.01 0.01 81 1019.5
20260502041425 35 64 0.0 0.0 0.00 0.01 0.01 80 1019.5
20260502040932 35 64 0.0 0.0 0.00 0.01 0.01 80 1019.4
20260502040419 36 64 0.0 0.0 0.00 0.01 0.01 80 1019.5
20260502035930 36 64 0.0 0.0 0.00 0.01 0.01 79 1019.4
20260502035431 36 64 0.0 0.0 0.00 0.02 0.01 78 1019.5
20260502034941 36 64 0.0 0.0 0.00 0.02 0.01 78 1019.5
20260502034425 36 64 0.0 0.0 0.00 0.02 0.01 78 1019.4
20260502033934 37 64 0.0 0.0 0.00 0.02 0.01 77 1019.4
20260502033422 37 64 0.0 0.0 0.00 0.02 0.01 77 1019.4
20260502032933 37 64 0.0 0.0 0.00 0.02 0.01 77 1019.3
20260502032441 37 64 0.0 0.0 0.00 0.02 0.01 76 1019.4
20260502031948 37 64 0.0 0.0 0.00 0.02 0.01 76 1019.4
20260502031415 37 64 0.0 0.0 0.00 0.02 0.01 75 1019.3